Regional Weather Roundup
Issued by NWS

Home | Current Version | Previous Version | Text Only | Print | Product List | Glossary On
Versions: 1 2 3 4 5 6 7 8 9 10 11 12 13 14 15 16 17 18 19 20 21 22 23 24 25 26 27 28 29 30 31 32 33 34 35 36 37 38 39 40 41 42 43 44 45 46 47 48 49 50
000
ASUS44 KOUN 240510
RWROK

WEATHER ROUNDUP FOR OKLAHOMA
NATIONAL WEATHER SERVICE NORMAN OK
1200 AM CDT MON JUL 24 2017

NOTE: "FAIR" INDICATES FEW OR NO CLOUDS BELOW 12,000 FEET WITH NO
      SIGNIFICANT WEATHER AND/OR OBSTRUCTIONS TO VISIBILITY.

OKZ001>007-009>012-014-015-017-240600-
NORTHWEST OKLAHOMA AND THE PANHANDLE

CITY           SKY/WX    TMP DP  RH WIND       PRES   REMARKS
GAGE           PTCLDY    78  65  63 SE7       30.01R
GUYMON         CLEAR     79  65  62 SE7       30.06R
ENID/WOODRING  CLEAR     77  68  73 CALM      29.95R
$$

OKZ016-021>023-033>039-044-045-240600-
SOUTHWEST OKLAHOMA

CITY           SKY/WX    TMP DP  RH WIND       PRES   REMARKS
LAWTON/REGL    CLOUDY    76  75  97 S10       30.00R
FREDERICK      LGT RAIN  76  72  87 SE14      29.94F
CLINTON        CLOUDY    73  69  87 SE7       30.01R
HOBART         CLOUDY    75  70  84 SE7       30.00R
ALTUS AFB      CLOUDY    75  66  74 SE8       29.96R
$$

OKZ018>020-024>031-240600-
CENTRAL OKLAHOMA

CITY           SKY/WX    TMP DP  RH WIND       PRES   REMARKS
OKLAHOMA CITY  CLOUDY    74  70  87 S5        29.97R
OKC/WILEY POST CLOUDY    77  70  79 S6        29.96R
OKC/TINKER AFB MOCLDY    73  68  83 S6        29.96R
STILLWATER     PTCLDY    74  68  81 CALM      29.95R
GUTHRIE        CLOUDY    76  69  79 S7        29.96R
$$

OKZ008-013-054>072-240600-
NORTHEAST OKLAHOMA

CITY           SKY/WX    TMP DP  RH WIND       PRES   REMARKS
TULSA          MOCLDY    79  71  76 S7        29.92R
TULSA/JONES    MOCLDY    76  70  82 SW3       29.94R
PONCA CITY     CLEAR     77  67  71 SE5       29.94R
BARTLESVILLE   PTCLDY    72  68  87 CALM      29.94R
MUSKOGEE       CLOUDY    74  73  97 CALM      29.95R
$$

OKZ032-040>043-046>053-073>077-240600-
SOUTH CENTRAL/SOUTHEAST OKLAHOMA

CITY           SKY/WX    TMP DP  RH WIND       PRES   REMARKS
ARDMORE/DWNTWN LGT RAIN  73  64  73 SW6       29.99R
MCALESTER      CLOUDY    73  71  93 CALM      29.96R
$$




USA.gov is the U.S. government's official web portal to all federal, state and local government web resources and services.